Regional Weather Roundup
Issued by NWS

Home | Current Version | Previous Version | Text Only | Print | Product List | Glossary On
Versions: 1 2 3 4 5 6 7 8 9 10 11 12 13 14 15 16 17 18 19 20 21 22 23 24 25 26 27 28 29 30 31 32 33 34 35 36 37 38 39 40 41 42 43 44 45 46 47 48 49 50
000
ASUS44 KFWD 250015
RWRTX
NORTH TEXAS HOURLY WEATHER ROUNDUP
NATIONAL WEATHER SERVICE FORT WORTH TX
700 PM CDT FRI OCT 24 2014

NOTE: "FAIR" INDICATES FEW OR NO CLOUDS BELOW 12,000 FEET WITH NO
SIGNIFICANT WEATHER AND/OR OBSTRUCTIONS TO VISIBILITY.

TXZ118-119-250100-
DALLAS/FORT WORTH METROPLEX

CITY           SKY/WX    TMP DP  RH WIND       PRES   REMARKS
DFW AIRPORT    PTCLDY    79  60  52 S8        30.06S
6HR MIN TEMP:  78; 6HR MAX TEMP:  84;

DALLAS LOVE    PTCLDY    79  60  52 S7        30.06S
6HR MIN TEMP:  78; 6HR MAX TEMP:  84;

FTW MEACHAM    CLEAR     80  60  50 S9        30.05S
6HR MIN TEMP:  79; 6HR MAX TEMP:  86;

DAL-EXECUTIVE  CLEAR     80  59  48 S3        30.06S
6HR MIN TEMP:  79; 6HR MAX TEMP:  85;

FTW-ALLIANCE   PTCLDY    77  59  53 S8        30.05S
6HR MIN TEMP:  77; 6HR MAX TEMP:  86;

FTW-NAS-JRB    PTCLDY    84  59  42 SE7       30.09F
6HR MIN TEMP:  84; 6HR MAX TEMP:  89;

FTW-SPINKS     CLEAR     77  61  57 SE8       30.08S
ARLINGTON      CLEAR     78  59  51 S6        30.06S
6HR MIN TEMP:  78; 6HR MAX TEMP:  85;

GRAND PRAIRIE  CLEAR     81  63  54 MISG      30.08S
ADDISON        PTCLDY    81  59  47 S7        30.07
MESQUITE       CLEAR     75  59  57 SE5       30.07S
LANCASTER      CLEAR     75  58  53 S5        30.08R
6HR MIN TEMP:  75; 6HR MAX TEMP:  83;

$$

TXZ091>094-102>105-117-120-121-131>134-250100-
NORTH CENTRAL TEXAS

CITY           SKY/WX    TMP DP  RH WIND       PRES   REMARKS
SHRMAN/DENISON CLEAR     76  64  64 SE7       30.07S
6HR MIN TEMP:  76; 6HR MAX TEMP:  83;

GAINESVILLE    CLEAR     74  61  64 SE6       30.08R
6HR MIN TEMP:  74; 6HR MAX TEMP:  83;

BOWIE          CLEAR     76  61  58 SE3       30.05S
6HR MIN TEMP:  76; 6HR MAX TEMP:  85;

BRIDGEPORT     CLEAR     79  61  53 S5        30.07S
6HR MIN TEMP:  79; 6HR MAX TEMP:  86;

DECATUR        CLEAR     78  59  52 SE6       30.07R
6HR MIN TEMP:  78; 6HR MAX TEMP:  85;

DENTON         CLEAR     77  61  57 SE8       30.05S
6HR MIN TEMP:  77; 6HR MAX TEMP:  84;

MCKINNEY       CLEAR     75  60  59 SE8       30.07S
6HR MIN TEMP:  75; 6HR MAX TEMP:  82;

GREENVILLE     CLEAR     72  59  64 SE6       30.09S
ROCKWALL       CLEAR     76  61  60 SE3       30.07S
6HR MIN TEMP:  76; 6HR MAX TEMP:  82;

TERRELL        CLEAR     75  61  61 SE6       30.08S
6HR MIN TEMP:  75; 6HR MAX TEMP:  82;

WAXAHACHIE     CLEAR     77  61  57 CALM      30.09S
6HR MIN TEMP:  77; 6HR MAX TEMP:  84;

CLEBURNE       CLEAR     77  63  61 SE7       30.09S
GRANBURY       CLEAR     82  60  48 SE5       30.07S
6HR MIN TEMP:  82; 6HR MAX TEMP:  87;

$$

TXZ083>090-098>101-113>116-127>130-139>142-154-155-250100-
WESTERN NORTH TEXAS

CITY           SKY/WX    TMP DP  RH WIND       PRES   REMARKS
WICHITA FALLS  PTCLDY    80  59  48 S9        30.02S
6HR MIN TEMP:  80; 6HR MAX TEMP:  87;

WF-KICKAPOO    CLEAR     79  57  46 S7        30.04S
6HR MIN TEMP:  79; 6HR MAX TEMP:  87;

VERNON         CLEAR     82  54  36 S7        30.03S
ABILENE        CLEAR     81  53  37 S6        30.09S
6HR MIN TEMP:  80; 6HR MAX TEMP:  87;

ABILENE-DYESS  CLEAR     80  55  42 S8        30.08R
6HR MIN TEMP:  80; 6HR MAX TEMP:  87;

BRECKENRIDGE   CLEAR     83  54  37 S7        30.06S
6HR MIN TEMP:  83; 6HR MAX TEMP:  88;

GRAHAM         CLEAR     82  58  45 S3        30.03F
6HR MIN TEMP:  82; 6HR MAX TEMP:  89;

MINERAL WELLS  CLEAR     79  58  48 S7        30.05S
6HR MIN TEMP:  79; 6HR MAX TEMP:  87;

STEPHENVILLE   CLEAR     79  58  48 CALM      30.11S
6HR MIN TEMP:  79; 6HR MAX TEMP:  84;

COMANCHE       CLEAR     80  59  48 CALM      30.09S
6HR MIN TEMP:  80; 6HR MAX TEMP:  86;

BROWNWOOD      CLEAR     77  57  50 SE5       30.09R
COLEMAN        CLEAR     82  56  41 CALM      30.09S
6HR MIN TEMP:  81; 6HR MAX TEMP:  87;

BRADY          CLEAR     81  55  41 E7        30.10R
$$

TXZ143>147-156>162-174-175-250100-
CENTRAL TEXAS

CITY           SKY/WX    TMP DP  RH WIND       PRES   REMARKS
WACO           CLEAR     74  61  63 E7        30.08S
6HR MIN TEMP:  74; 6HR MAX TEMP:  83;

WACO-TSTC      CLEAR     75  63  64 SE3       30.08
WACO-MCGREGOR  CLEAR     79  57  47 SE7       30.09S
6HR MIN TEMP:  79; 6HR MAX TEMP:  84;

HILLSBORO      CLEAR     78  58  50 SE6       30.08S
6HR MIN TEMP:  78; 6HR MAX TEMP:  84;

CORSICANA      CLEAR     75  60  59 SE6       30.09F
6HR MIN TEMP:  75; 6HR MAX TEMP:  82;

MEXIA          CLEAR     74  61  63 SE3       30.09S
6HR MIN TEMP:  74; 6HR MAX TEMP:  80;

HEARNE         CLEAR     75  61  62 CALM      30.10S HAZE
6HR MIN TEMP:  75; 6HR MAX TEMP:  82;

CAMERON        CLEAR     77  61  57 CALM      30.09S
6HR MIN TEMP:  77; 6HR MAX TEMP:  83;

TEMPLE         CLEAR     75  57  53 SE6       30.08S
6HR MIN TEMP:  75; 6HR MAX TEMP:  82;

KILLEEN        CLEAR     76  60  58 SE7       30.09R
6HR MIN TEMP:  76; 6HR MAX TEMP:  84;

KILLEEN-SKYLRK CLEAR     79  59  50 SE7       30.08S
6HR MIN TEMP:  79; 6HR MAX TEMP:  84;

FORT HOOD      CLEAR     79  61  53 E5        30.09R
6HR MIN TEMP:  79; 6HR MAX TEMP:  87;

GATESVILLE     CLEAR     79  61  53 CALM      30.11R
HAMILTON       CLEAR     76  58  52 S5        30.10S
6HR MIN TEMP:  76; 6HR MAX TEMP:  86;

LAMPASAS       CLEAR     77  62  59 CALM      30.09S
6HR MIN TEMP:  77; 6HR MAX TEMP:  83;

$$

TXZ095>097-106>112-122>126-135>138-148>153-164>167-250100-
EAST TEXAS

CITY           SKY/WX    TMP DP  RH WIND       PRES   REMARKS
PARIS          CLEAR     70  55  60 S7        30.08F
6HR MIN TEMP:  70; 6HR MAX TEMP:  79;

SULPHUR SPRNGS CLEAR     74  59  59 SE3       30.11S
6HR MIN TEMP:  74; 6HR MAX TEMP:  81;

MOUNT PLEASANT CLEAR     72  60  65 SE3       30.11S
6HR MIN TEMP:  72; 6HR MAX TEMP:  79;

MINEOLA        CLEAR     70  64  83 CALM      30.10S
TYLER          CLEAR     72  60  66 S3        30.10S
6HR MIN TEMP:  71; 6HR MAX TEMP:  80;

LONGVIEW       PTCLDY    67  61  81 SE5       30.10S
6HR MIN TEMP:  67; 6HR MAX TEMP:  80;

MARSHALL       PTCLDY    70  62  76 CALM      30.12S
6HR MIN TEMP:  70; 6HR MAX TEMP:  80;

ATHENS         CLEAR     70  61  73 CALM      30.09S
PALESTINE      CLEAR     72  62  70 CALM      30.11S
JACKSONVILLE   CLEAR     71  60  68 CALM      30.13S
HENDERSON      PTCLDY    67  60  78 CALM      30.11F
6HR MIN TEMP:  67; 6HR MAX TEMP:  79;

NACOGDOCHES    CLEAR     66  59  77 CALM      30.12R
6HR MIN TEMP:  66; 6HR MAX TEMP:  81;

LUFKIN         CLEAR     71  59  65 CALM      30.11R
6HR MIN TEMP:  71; 6HR MAX TEMP:  82;

$$

SUPPLEMENTAL OBSERVATIONS (CENTRAL)

CITY           SKY/WX    TMP DP  RH WIND       PRES   REMARKS
LAKE TEXOMA      N/A    N/A N/A N/A S5          N/A
PAT MAYSE LAKE   N/A    N/A N/A N/A SE7         N/A
GREENVILLE       N/A     73  59  60 SE3         N/A
CEDAR HILL       N/A     75  57  53 SE3         N/A
ATHENS           N/A     73  63  68 SE1         N/A
LAKE LIMESTONE   N/A     72  61  68 SE1         N/A
MCGREGOR         N/A     77  59  53 SE5         N/A
$$

SUPPLEMENTAL OBSERVATIONS (WEST)

CITY           SKY/WX    TMP DP  RH WIND       PRES   REMARKS
MILLERS CREEK    N/A     81  54  39 S3          N/A



USA.gov is the U.S. government's official web portal to all federal, state and local government web resources and services.